www.pogodaiklimat.ru

Погода и климат >> Архив погоды >> Антарктида >> Troll


ПОГОДА в Troll

  • Прогноз погоды в Troll
  • Монитор погоды в Troll
  • Климат города

АРХИВ ПОГОДЫ в Troll

Время (UTC), дата Ветер
(напр.,м/с)
 
Видим.   Явления Облачность Т
(С)
Тd
(С)
f
(%)
Тe
(С)
Тes
(С)
Комфортность P
(гПа)
Po
(гПа)
Тmin
(С)
Tmax
(С)
R
(мм)
R24
(мм)
S
(см)
01 11.10 Ю 1 н/о н/о -26.1 -37.5 33 -30 -30 990.5 832.7
02 11.10 Ю 1 н/о н/о -25.5 -37.0 33 -29 -29 990.0 832.6
03 11.10 Ю 2 н/о н/о -25.9 -37.3 33 -31 -31 опасность
обморожения
990.1 832.5
04 11.10 ЮЗ 1 н/о н/о -26.1 -37.2 34 -27 -27 990.4 832.5
05 11.10 ЮВ 1 н/о н/о -25.0 -37.1 31 -26 -26 989.4 832.4
06 11.10 В 1
{3}
>70 км ясно -24.6 -36.4 33 -26 -25 989.0 832.3 -29.4
07 11.10 СВ 1 н/о н/о -24.4 -36.6 31 -25 -25 989.0 832.5
08 11.10 ЮЗ 1 н/о н/о -24.0 -36.2 31 -28 -28 988.7 832.4
09 11.10 ЮЗ 1 н/о н/о -22.3 -35.7 28 -23 -23 987.4 832.3
10 11.10 З 1 н/о н/о -23.4 -35.7 31 -27 -27 988.2 832.2
11 11.10 ЮЗ 1 н/о н/о -23.1 -35.1 32 -24 -24 987.7 832.1
12 11.10 СЗ 1
{2}
н/о н/о -22.9 -33.7 37 -24 -24 987.2 831.8
13 11.10 СВ 1 н/о н/о -23.0 -35.3 31 -26 -26 987.2 831.7
14 11.10 СВ 1 н/о н/о -23.9 -35.5 33 -27 -27 987.8 831.7
15 11.10 ЮЗ 1 н/о н/о -22.7 -33.0 38 -24 -24 987.0 831.6
16 11.10 С 1 н/о н/о -23.9 -34.3 38 -25 -25 987.6 831.7
17 11.10 СВ 1 н/о н/о -23.8 -35.4 33 -25 -25 987.8 831.7
18 11.10 СЗ 1
{2}
>70 км ясно -23.8 -33.7 40 -25 -24 987.3 831.6 -21.5
19 11.10 ЮЗ 1 н/о н/о -25.6 -35.1 41 -29 -29 989.0 831.8
20 11.10 В 1 н/о н/о -25.9 -36.4 37 -27 -27 989.6 832.1
21 11.10 С 1 н/о н/о -26.4 -36.4 38 -27 -27 990.0 832.2
22 11.10 ЮВ 1 н/о н/о -25.6 -36.2 36 -29 -29 989.3 832.1
23 11.10 Ю 1 н/о н/о -25.7 -37.1 33 -27 -27 989.3 832.0
00 12.10 ЮЗ 2
{2}
н/о н/о -25.0 -36.8 32 -30 -30 988.9 832.0
01 12.10 штиль 0 н/о н/о -24.8 -36.6 32 -25 -25 989.0 832.1
02 12.10 СВ 1 н/о н/о -25.2 -37.0 32 -29 -29 989.3 832.3
03 12.10 СВ 1 н/о н/о -24.7 -37.2 30 -28 -28 989.2 832.4
04 12.10 Ю 1 н/о н/о -25.5 -37.6 31 -29 -29 989.3 832.1
05 12.10 Ю 1 н/о н/о -25.6 -37.7 31 -29 -29 988.8 831.6
06 12.10 В 1
{3}
>70 км ясно -23.9 -36.8 29 -27 -27 987.4 831.4 -27.2
07 12.10 ЮЗ 1 н/о н/о -25.2 -37.6 30 -29 -29 988.2 831.4
08 12.10 СВ 1 н/о н/о -23.0 -36.4 28 -26 -26 986.8 831.3
09 12.10 С 1 н/о н/о -22.5 -36.3 27 -23 -23 985.9 831.0
10 12.10 ЮЗ 1 н/о н/о -22.0 -35.5 28 -23 -23 985.7 831.0
11 12.10 ЮЗ 1 н/о н/о -22.2 -34.6 31 -26 -26 985.9 831.0
12 12.10 ЮЗ 1
{2}
>70 км ясно -21.7 -35.6 27 -25 -19 984.7 830.4
13 12.10 ЮЗ 1 н/о н/о -23.0 -35.6 31 -26 -26 984.9 829.8
14 12.10 С 1 н/о н/о -22.1 -34.8 31 -25 -25 983.7 829.3
15 12.10 З 1 н/о н/о -22.8 -34.5 33 -26 -26 984.2 829.4
16 12.10 С 2 н/о н/о -24.5 -35.5 35 -31 -31 опасность
обморожения
985.4 829.4
17 12.10 С 3 н/о н/о -24.6 -36.4 33 -32 -32 опасность
обморожения
985.7 829.5
18 12.10 С 2
{5}
>70 км ясно -24.3 -35.9 33 -30 -29 985.8 829.9 -20.2
19 12.10 В 3 н/о н/о -25.3 -36.5 34 -33 -33 опасность
обморожения
987.3 830.5
20 12.10 С 1 н/о н/о -27.7 -36.4 43 -32 -32 опасность
обморожения
989.5 831.0
21 12.10 ЮЗ 1 н/о н/о -28.8 -36.7 46 -33 -33 опасность
обморожения
990.6 831.3
22 12.10 Ю 2 н/о н/о -27.3 -36.5 41 -34 -34 опасность
обморожения
990.1 831.7
23 12.10 В 1 н/о н/о -26.7 -35.9 41 -31 -31 опасность
обморожения
990.3 832.2
00 13.10 В 1
{5}
н/о н/о -27.2 -37.4 37 -31 -31 опасность
обморожения
991.6 833.0
01 13.10 СВ 5 н/о н/о -25.9 -35.2 41 -37 -37 опасность
обморожения
991.0 833.3
02 13.10 В 1 н/о н/о -26.4 -35.4 42 -30 -30 991.4 833.3
03 13.10 Ю 2 н/о н/о -27.8 -36.5 43 -34 -34 опасность
обморожения
992.3 833.3
04 13.10 штиль 0 н/о н/о -26.6 -36.0 41 -27 -27 991.5 833.3
05 13.10 Ю 1 н/о н/о -25.6 -35.9 37 -27 -27 990.9 833.3
06 13.10 СВ 3
{7}
>70 км ясно -24.6 -36.1 34 -32 -32 опасность
обморожения
990.6 833.7 -29.0
07 13.10 СВ 1 н/о н/о -23.6 -35.2 34 -27 -27 990.7 834.3
08 13.10 ЮЗ 1 н/о н/о -24.3 -35.3 35 -25 -25 991.7 834.8
09 13.10 ЮЗ 1 н/о н/о -23.9 -35.2 34 -27 -27 991.6 834.8
10 13.10 СВ 2 н/о н/о -22.6 -33.7 36 -28 -28 991.0 835.0
11 13.10 С 2 н/о н/о -22.0 -33.8 33 -27 -27 990.5 835.1
12 13.10 С 2
{4}
35 км ясно -21.4 -33.2 34 -26 -21 990.5 835.4
13 13.10 С 2 н/о н/о -21.6 -33.1 35 -28 -28 991.1 835.7
14 13.10 0 н/о н/о
15 13.10 ЮЗ 2 н/о н/о -21.2 -32.4 36 -26 -26 990.6 835.5
16 13.10 З 2 н/о н/о -22.5 -33.1 37 -28 -28 991.4 835.6
17 13.10 Ю 2 н/о н/о -21.9 -32.5 38 -28 -28 991.1 835.6
18 13.10 ЮЗ 1
{4}
>70 км 6/0
[Ac und Ci fib]
-23.3 -33.3 39 -27 -26 992.1 835.6 -20.2
19 13.10 ЮЗ 1 н/о н/о -23.1 -34.8 33 -24 -24 992.3 836.0
20 13.10 ЮЗ 1 н/о н/о -24.0 -35.0 35 -28 -28 993.3 836.3
21 13.10 Ю 2 н/о н/о -23.2 -35.5 31 -28 -28 992.7 836.3
22 13.10 ЮЗ 1 н/о н/о -24.0 -36.2 31 -25 -25 993.2 836.3
23 13.10 В 1 н/о н/о -22.7 -35.0 32 -26 -26 992.5 836.3
00 14.10 В 2
{4}
н/о н/о -23.3 -35.3 32 -29 -29 992.5 836.1
01 14.10 С 1 н/о н/о -23.7 -35.3 34 -25 -25 992.6 835.9
02 14.10 ЮЗ 1 н/о н/о -25.0 -35.6 37 -26 -26 993.4 835.7
03 14.10 ЮЗ 1 н/о н/о -24.4 -35.4 35 -25 -25 992.7 835.6
04 14.10 Ю 1 н/о н/о -23.5 -35.4 33 -24 -24 991.9 835.3
05 14.10 ЮВ 1 н/о н/о -23.3 -35.3 32 -24 -24 991.5 835.1
06 14.10 ЮЗ 1
{2}
>70 км 6/6 1500 м
[Sc diur, vesp]
-23.9 -34.9 35 -27 -27 991.7 835.0 -26.1
07 14.10 В 1 н/о н/о -21.6 -34.7 30 -22 -22 990.4 835.1
08 14.10 СВ 2 н/о н/о -21.2 -33.7 31 -27 -27 989.8 834.9
09 14.10 СВ 2 н/о н/о -21.3 -33.5 32 -26 -26 989.8 834.8
10 14.10 С 2 н/о н/о -20.8 -33.7 30 -27 -27 989.1 834.6
11 14.10 СВ 2 н/о н/о -20.0 -32.0 33 -26 -26 988.4 834.4
12 14.10 СВ 3
{4}
70 км 6/6 1000 м
[Sc diur, vesp]
-20.1 -32.0 34 -27 -25 988.2 834.2 0.0
13 14.10 СВ 2 н/о н/о -20.1 -32.0 34 -26 -26 988.2 834.1
14 14.10 С 3 н/о н/о -20.6 -32.2 35 -28 -28 988.3 833.9
15 14.10 С 2 н/о н/о -21.1 -32.3 36 -27 -27 988.1 833.6
16 14.10 штиль 0 н/о н/о -20.5 -32.4 34 -21 -21 987.7 833.5
17 14.10 ЮЗ 1 н/о н/о -22.3 -32.1 40 -26 -26 988.7 833.4
18 14.10 ЮЗ 1
{5}
60 км 10/10 600 м
[Sc diur, vesp]
-22.2 -32.2 40 -26 -26 988.5 833.3 -19.7
19 14.10 штиль 0 н/о н/о -22.5 -32.8 39 -23 -23 989.0 833.5
20 14.10 Ю 2 н/о н/о -22.3 -33.2 36 -27 -27 989.1 833.7
21 14.10 штиль 0 н/о н/о -23.2 -34.3 35 -23 -23 989.8 833.7
22 14.10 ЮЗ 1 н/о н/о -23.1 -33.3 39 -27 -27 989.6 833.7
23 14.10 СЗ 1 н/о н/о -23.3 -33.8 37 -24 -24 989.6 833.6
00 15.10 ЮЗ 2
{4}
н/о н/о -26.5 -34.8 45 -32 -32 опасность
обморожения
991.9 833.7
01 15.10 ЮЗ 2 н/о н/о -24.6 -34.0 41 -30 -30 990.9 833.9
02 15.10 Ю 1 н/о н/о -24.4 -34.0 41 -25 -25 991.0 834.1
03 15.10 СВ 2 н/о н/о -23.4 -33.9 37 -29 -29 990.3 834.2
04 15.10 Ю 1 н/о н/о -23.4 -33.3 40 -24 -24 990.7 834.4
05 15.10 Ю 1 н/о н/о -22.7 -33.0 38 -26 -26 990.5 834.6
06 15.10 З 1
{3}
60 км 10/10 200 м
[Sc diur, vesp]
-22.7 -31.9 43 -24 -24 990.8 834.9 -26.5
07 15.10 ЮЗ 1 н/о н/о -22.0 -31.1 43 -25 -25 990.7 835.2
08 15.10 СВ 3 н/о н/о -20.5 -30.9 39 -28 -28 990.2 835.6
09 15.10 СВ 3 н/о н/о -19.9 -30.4 39 -28 -28 990.1 836.0
10 15.10 СВ 4 н/о н/о -20.3 -32.5 33 -29 -29 991.2 836.6
11 15.10 СВ 4 н/о н/о -21.1 -32.3 36 -30 -30 992.2 837.1
12 15.10 СВ 5
{8}
>70 км 10/10 600 м
[Cu Sc]
-20.7 -30.6 41 -31 -31 опасность
обморожения
992.8 837.7
13 15.10 СВ 6 н/о н/о -21.0 -28.6 50 -32 -32 опасность
обморожения
993.2 837.9
14 15.10 СВ 5 н/о н/о -20.5 -27.9 51 -30 -30 993.2 838.2
15 15.10 СВ 5 н/о н/о -20.6 -28.0 51 -30 -30 993.7 838.5
16 15.10 СВ 5 н/о н/о -20.8 -27.8 53 -31 -31 опасность
обморожения
993.9 838.6
17 15.10 СВ 5 н/о н/о -20.8 -28.2 51 -31 -31 опасность
обморожения
994.3 838.9
18 15.10 СВ 4
{9}
>70 км 10/10 600 м
[Cu Sc]
-21.4 -28.2 54 -31 -31 опасность
обморожения
995.1 839.3 -19.7
19 15.10 СВ 3 н/о н/о -21.7 -28.2 56 -30 -30 995.7 839.6
20 15.10 В 3 н/о н/о -21.7 -28.4 55 -29 -29 995.8 839.7
21 15.10 В 2 н/о н/о -21.8 -28.3 56 -28 -28 995.6 839.5
22 15.10 В 1 н/о н/о -21.8 -28.5 55 -25 -25 995.3 839.2
23 15.10 Ю 2 н/о н/о -22.5 -28.8 56 -28 -28 995.4 838.9
00 16.10 ЮЗ 1
{6}
н/о н/о -22.6 -28.9 56 -26 -26 995.2 838.6
01 16.10 СВ 2 н/о н/о -20.7 -29.2 46 -26 -26 993.6 838.3
02 16.10 СВ 1 н/о н/о -21.2 -29.4 48 -24 -24 993.3 837.9
03 16.10 ЮЗ 1 н/о н/о -22.4 -30.1 49 -26 -26 993.4 837.3
04 16.10 Ю 1 н/о н/о -21.9 -30.1 47 -25 -25 992.5 836.9
05 16.10 С 2 н/о н/о -20.8 -29.2 47 -26 -26 991.8 836.8
06 16.10 СЗ 1
{4}
>70 км 3/3 1000 м
[Cu med, cong Ci fib]
-20.5 -29.2 46 -21 -20 991.3 836.6 -23.0
07 16.10 Ю 1 н/о н/о -19.2 -29.0 42 -20 -20 990.0 836.3
08 16.10 ЮЗ 1 н/о н/о -17.9 -28.3 40 -21 -21 989.4 836.3
09 16.10 З 1 н/о н/о -18.2 -29.1 38 -21 -21 989.7 836.5
10 16.10 ЮЗ 1 н/о н/о -17.5 -28.8 37 -20 -20 989.3 836.6
11 16.10 З 1 н/о н/о -17.1 -28.1 38 -20 -20 989.3 836.6
12 16.10 З 1
{3}
>70 км 5/0
[Cs]
-17.3 -28.6 37 -18 -12 989.4 836.8
13 16.10 Ю 3 н/о н/о -17.3 -28.0 39 -24 -24 989.0 836.4
14 16.10 ЮЗ 2 н/о н/о -17.3 -25.8 48 -22 -22 989.1 836.4
15 16.10 З 1 н/о н/о -16.6 -24.9 49 -17 -17 988.3 836.2
16 16.10 ЮЗ 1 н/о н/о -16.6 -24.7 49 -19 -19 988.1 836.0
17 16.10 Ю 1 н/о н/о -16.7 -23.9 54 -19 -19 988.0 835.9
18 16.10 З 1
{4}
>70 км 10/9 300 м
[St]
-16.9 -22.4 62 -17 -17 988.1 835.8 -15.6
19 16.10 ЮЗ 1 н/о н/о -18.7 -23.8 64 -19 -19 989.2 835.8
20 16.10 ЮЗ 1 н/о н/о -18.1 -22.4 69 -21 -21 988.1 835.1
21 16.10 ЮЗ 1 н/о н/о -18.7 -22.7 71 -22 -22 987.9 834.7
22 16.10 СВ 2 н/о н/о -17.0 -21.5 68 -22 -22 985.8 833.7
23 16.10 В 3 н/о н/о -14.9 -22.0 55 -22 -22 983.6 833.1
00 17.10 СВ 4
{11}
н/о н/о -15.1 -20.7 62 -23 -23 982.9 832.4
01 17.10 СВ 6 н/о н/о -14.2 -21.1 56 -23 -23 982.0 832.0
02 17.10 СВ 6 н/о н/о -13.9 -21.1 54 -23 -23 981.1 831.5
03 17.10 СВ 6 н/о н/о -14.8 -19.7 66 -24 -24 981.8 831.6
04 17.10 СВ 8 н/о н/о -16.0 -20.4 69 -27 -27 982.5 831.6
05 17.10 СВ 9 н/о н/о -16.8 -21.2 69 -29 -29 982.7 831.3
06 17.10 СВ 8
{16}
<100 м сильная метель {снег} ?/? -17.1 -21.5 69 -29 -29 983.1 831.5 -19.0
07 17.10 СВ 11 н/о н/о -17.3 -22.3 65 -30 -30 983.2 831.5
08 17.10 СВ 8 н/о н/о -17.2 -22.4 64 -29 -29 983.3 831.6
09 17.10 СВ 5 н/о н/о -17.2 -21.7 68 -26 -26 983.3 831.6
10 17.10 СВ 4 н/о н/о -16.6 -21.5 66 -25 -25 982.3 831.0
11 17.10 СВ 4 н/о н/о -16.0 -21.2 64 -24 -24 981.7 830.8
12 17.10 СВ 5
{17}
1500 м метель {снег} ?/? -15.9 -20.5 68 -25 -25 981.2 830.5 0.6
13 17.10 СВ 7 н/о н/о -15.8 -20.2 69 -26 -26 981.0 830.4
14 17.10 СВ 9 н/о н/о -16.3 -20.4 71 -28 -28 981.4 830.5
15 17.10 СВ 9 н/о н/о -17.2 -19.7 81 -29 -29 981.8 830.3
16 17.10 СВ 10 н/о н/о -17.3 -20.6 75 -30 -30 981.1 829.6
17 17.10 СВ 10 н/о н/о -17.2 -20.8 73 -30 -30 980.9 829.6
18 17.10 СВ 10
{19}
1100 м сильная метель {снег} 10/0
[]
-17.1 -21.1 71 -30 -30 980.5 829.3 -15.6
19 17.10 СВ 11 н/о н/о -16.8 -21.0 70 -30 -30 980.9 829.7
20 17.10 СВ 11 н/о н/о -16.4 -21.1 67 -29 -29 980.9 830.0
21 17.10 СВ 10 н/о н/о -15.9 -20.3 69 -28 -28 980.6 830.0
22 17.10 СВ 10 н/о н/о -15.5 -19.4 72 -28 -28 980.1 829.8
23 17.10 СВ 10 н/о н/о -15.1 -19.4 70 -27 -27 979.6 829.6

 

Местоположение метеостанции Troll (Антарктида): широта -72.01 долгота 2.38 высота над уровнем моря 1290 м.

В архиве по умолчанию представлена погода в Troll за последнюю неделю. Архивные данные за месяц целиком и за предыдущие месяцы, начиная с января 2011 года, Вы можете получить, выбрав интересующий диапазон дат из раскрывающегося списка и нажав кнопку "Ввод!".


*Определитесь, кто Вы:
робот инопланетянин человек

Внимание! Время в таблицах - всемирное. Для получения местного времени необходимо прибавить поправку, которая в Troll равна 0 ч.

Смотрите также архив погоды в соседних городах и на ближайших метеорологических станциях:

Погода в SANAE (Антарктида) (183 км)
Погода в Kohnen Ep9 (Антарктида) (341 км)
Погода в Maitri (Антарктида) (360 км)
Погода в Novolazarevskaja (Антарктида) (362 км)
Погода в Neumayer Station (Антарктида) (406 км)
Погода в Soerasen (Антарктида) (439 км)
Погода в Nordenskiold Base (Антарктида) (537 км)
Погода в Halley (Антарктида) (970 км)
Погода в Base Belgrano Ii (Антарктида) (1220 км)
Погода в Relay Station (Антарктида) (1314 км)

Пояснения к столбцам:

Ветер - указаны скорость ветра в м/с - средняя за 10 мин, порывы в срок и между сроками (в фигурных скобках) и направление, откуда дует ветер: С - северный, СВ - северо-восточный, В - восточный, ЮВ - юго-восточный, Ю - южный, ЮЗ - юго-западный, З - западный, СЗ - северо-западный.
Видимость - горизонтальная дальность видимости в метрах или километрах. При видимости от 1 до 10 км при отсутствии осадков обычно наблюдается дымка, при ухудшении видимости до 1 км и менее - туман. В сухую погоду видимость может ухудшаться дымом, пылью или мглою.
Явления - указаны атмосферные явления, наблюдавшиеся в срок или в последний час перед сроком; фигурными скобками обозначены явления, наблюдавшиеся между сроками (за 1-3 часа до срока); квадратными скобками обозначены град или гололедные отложения с указанием их диаметра в мм.
Облачность - указаны через наклонную черту общая и нижняя облачность в баллах и высота нижней границы облаков в метрах; квадратными скобками обозначены формы облаков: Ci - перистые, Cs - перисто-слоистые, Cc - перисто-кучевые, Ac - высококучевые, As - высокослоистые, Sc - слоисто-кучевые, Ns - слоисто-дождевые, Cu - кучевые, Cb - кучево-дождевые. Подробнее классификацию облаков см. в Атласе облаков (PDF).
T - Температура воздуха - температура, измеренная на высоте 2 м над землей.
Td - Температура точки росы - температура, при понижении до которой содержащийся в воздухе водяной пар достигнет насыщения.
f - Относительная влажность воздуха - влажноcть воздуха, измеренная на высоте 2 м над землей.
Te - Эффективная температура - температура, которую ощущает одетый по сезону человек в тени. Характеристика душности погоды. При расчете учитывается влияние влажности воздуха и скорости ветра на теплоощущения человека.
Tes - Эффективная температура на солнце - температура, которую ощущает человек, с поправкой на солнечный нагрев. Характеристика знойности погоды. Зависит от высоты солнца над горизонтом, облачности и скорости ветра. Ночью, в пасмурную погоду, а также при ветре 12 м/с и более поправка равна нулю.
P - Атмосферное давление - приведенное к уровню моря атмосферное давление.
Po - Атмосферное давление - измеренное на уровне метеостанции атмосферное давление.
Tmin - Минимальная температура - минимум температуры воздуха на высоте 2 м над землей.
Tmax - Максимальная температура - максимум температуры воздуха на высоте 2 м над землей.
R - Количество осадков - Количество выпавших осадков за период времени, мм. При наведении курсора мыши на число - период времени, за который выпало указанное количество осадков.
R24 - Количество осадков - Количество выпавших осадков за 24 часа, мм.
S - Снежный покров - Высота снежного покрова, см. При наведении курсора мыши на число - состояние снежного покрова и степень покрытия местности в баллах.